When you browse on this site, cookies collect data to enhance your experience and personalize the content and advertising you see.
Visit our Privacy Policy to learn more. By continuing to use the site, you agree to this use of cookies and data.
  • en France
  • Liste des pays
  • À 7 jours
  • Température de l'eau
  • Carte satellitaire
  • Carte météo
  • Widgets météo
  • user-avatar
    Se connecter

    Météo par heure à Chaplygina

    Ce jour, 21 Mai, Mardi

    Heure Température Précipitation Vent Pression Humidité
    00:00 +14°C° 0 mm 2 m/s 747 mmHg 84%
    01:00 +14°C° 0 mm 2 m/s 747 mmHg 85%
    02:00 +13°C° 0 mm 2 m/s 747 mmHg 86%
    03:00 +13°C° 0 mm 2 m/s 747 mmHg 86%
    04:00 +14°C° 0 mm 2 m/s 747 mmHg 87%
    05:00 +14°C° 0 mm 2 m/s 747 mmHg 87%
    06:00 +16°C° 0 mm 2 m/s 747 mmHg 81%
    07:00 +17°C° 0 mm 2 m/s 747 mmHg 76%
    08:00 +19°C° 0 mm 2 m/s 747 mmHg 70%
    09:00 +20°C° 0 mm 3 m/s 747 mmHg 66%
    10:00 +21°C° 0 mm 3 m/s 747 mmHg 63%
    11:00 +22°C° 0 mm 4 m/s 747 mmHg 59%
    12:00 +22°C° 0 mm 4 m/s 746 mmHg 58%
    13:00 +22°C° 0 mm 4 m/s 746 mmHg 58%
    14:00 +22°C° 0 mm 5 m/s 746 mmHg 57%
    15:00 +22°C° 0 mm 4 m/s 745 mmHg 60%
    16:00 +22°C° 0 mm 4 m/s 745 mmHg 64%
    17:00 +21°C° 0 mm 3 m/s 744 mmHg 68%
    18:00 +19°C° 0 mm 3 m/s 744 mmHg 72%
    19:00 +17°C° 0 mm 3 m/s 744 mmHg 76%
    20:00 +14°C° 0 mm 3 m/s 744 mmHg 80%
    21:00 +14°C° 0 mm 3 m/s 744 mmHg 82%
    22:00 +13°C° 0 mm 3 m/s 744 mmHg 83%
    23:00 +13°C° 0 mm 2 m/s 744 mmHg 84%

    Demain, 22 Mai, Mercredi

    Heure Température Précipitation Vent Pression Humidité
    00:00 +12°C° 0 mm 3 m/s 743 mmHg 86%
    01:00 +12°C° 0 mm 3 m/s 743 mmHg 87%
    02:00 +11°C° 0 mm 3 m/s 743 mmHg 88%
    03:00 +12°C° 0 mm 3 m/s 743 mmHg 89%
    04:00 +13°C° 0 mm 2 m/s 742 mmHg 89%
    05:00 +13°C° 0 mm 2 m/s 742 mmHg 89%
    06:00 +13°C° 0.2 mm 3 m/s 742 mmHg 89%
    07:00 +14°C° 0.2 mm 3 m/s 742 mmHg 88%
    08:00 +15°C° 0.2 mm 4 m/s 741 mmHg 88%
    09:00 +17°C° 0.1 mm 4 m/s 741 mmHg 86%
    10:00 +17°C° 0.1 mm 4 m/s 741 mmHg 85%
    11:00 +18°C° 0.1 mm 4 m/s 741 mmHg 84%
    12:00 +19°C° 0.1 mm 4 m/s 740 mmHg 80%
    13:00 +20°C° 0.1 mm 4 m/s 740 mmHg 77%
    14:00 +21°C° 0.1 mm 4 m/s 740 mmHg 73%
    15:00 +21°C° 0.2 mm 4 m/s 739 mmHg 74%
    16:00 +21°C° 0.2 mm 3 m/s 739 mmHg 75%
    17:00 +21°C° 0.2 mm 3 m/s 739 mmHg 76%
    18:00 +20°C° 0 mm 3 m/s 738 mmHg 81%
    19:00 +18°C° 0 mm 3 m/s 738 mmHg 86%
    20:00 +17°C° 0 mm 2 m/s 738 mmHg 91%
    21:00 +16°C° 0 mm 2 m/s 738 mmHg 92%
    22:00 +16°C° 0 mm 2 m/s 738 mmHg 93%
    23:00 +15°C° 0 mm 2 m/s 738 mmHg 93%

    Après-demain, 23 Mai, Jeudi

    Heure Température Précipitation Vent Pression Humidité
    00:00 +15°C° 0 mm 2 m/s 738 mmHg 93%
    01:00 +14°C° 0 mm 2 m/s 738 mmHg 93%
    02:00 +14°C° 0 mm 2 m/s 737 mmHg 94%
    03:00 +14°C° 0 mm 2 m/s 737 mmHg 93%
    04:00 +14°C° 0 mm 2 m/s 737 mmHg 93%
    05:00 +15°C° 0 mm 2 m/s 737 mmHg 93%
    06:00 +17°C° 0 mm 3 m/s 737 mmHg 88%
    07:00 +18°C° 0 mm 3 m/s 738 mmHg 82%
    08:00 +20°C° 0 mm 3 m/s 738 mmHg 77%
    09:00 +22°C° 0.1 mm 3 m/s 738 mmHg 71%
    10:00 +24°C° 0.1 mm 3 m/s 737 mmHg 64%
    11:00 +25°C° 0.1 mm 4 m/s 737 mmHg 57%
    12:00 +25°C° 0.1 mm 4 m/s 737 mmHg 56%
    13:00 +26°C° 0.1 mm 4 m/s 737 mmHg 55%
    14:00 +26°C° 0.1 mm 4 m/s 737 mmHg 54%
    15:00 +25°C° 0.3 mm 3 m/s 737 mmHg 59%
    16:00 +25°C° 0.3 mm 3 m/s 737 mmHg 64%
    17:00 +24°C° 0.3 mm 2 m/s 737 mmHg 69%
    18:00 +21°C° 0.2 mm 2 m/s 737 mmHg 74%
    19:00 +19°C° 0.2 mm 2 m/s 737 mmHg 80%
    20:00 +18°C° 0.2 mm 1 m/s 737 mmHg 85%
    21:00 +18°C° 0 mm 1 m/s 737 mmHg 86%
    22:00 +16°C° 0 mm 1 m/s 738 mmHg 87%
    23:00 +16°C° 0 mm 1 m/s 738 mmHg 88%

    24 Mai, Vendredi

    Heure Température Précipitation Vent Pression Humidité
    00:00 +14°C° 0 mm 0 m/s 738 mmHg 89%
    01:00 +14°C° 0 mm 0 m/s 738 mmHg 89%
    02:00 +14°C° 0 mm 0 m/s 738 mmHg 90%
    03:00 +14°C° 0.1 mm 0 m/s 738 mmHg 90%
    04:00 +15°C° 0.1 mm 0 m/s 738 mmHg 90%
    05:00 +15°C° 0.1 mm 0 m/s 738 mmHg 91%
    06:00 +18°C° 0.7 mm 1 m/s 738 mmHg 87%
    07:00 +20°C° 0.7 mm 1 m/s 738 mmHg 83%
    08:00 +20°C° 0.7 mm 2 m/s 738 mmHg 79%
    09:00 +21°C° 1.7 mm 2 m/s 738 mmHg 75%
    10:00 +23°C° 1.7 mm 2 m/s 739 mmHg 71%
    11:00 +24°C° 1.7 mm 2 m/s 739 mmHg 67%
    12:00 +24°C° 0.7 mm 2 m/s 738 mmHg 66%
    13:00 +24°C° 0.7 mm 2 m/s 738 mmHg 65%
    14:00 +24°C° 0.7 mm 2 m/s 738 mmHg 65%
    15:00 +24°C° 0.4 mm 2 m/s 738 mmHg 69%
    16:00 +24°C° 0.4 mm 2 m/s 738 mmHg 72%
    17:00 +22°C° 0.4 mm 3 m/s 737 mmHg 76%
    18:00 +21°C° 0.1 mm 3 m/s 737 mmHg 80%
    19:00 +19°C° 0.1 mm 3 m/s 737 mmHg 84%
    20:00 +18°C° 0.1 mm 3 m/s 737 mmHg 88%
    21:00 +17°C° 0 mm 3 m/s 737 mmHg 90%
    22:00 +17°C° 0 mm 3 m/s 737 mmHg 91%
    23:00 +16°C° 0 mm 3 m/s 737 mmHg 93%

    25 Mai, Samedi

    Heure Température Précipitation Vent Pression Humidité
    00:00 +16°C° 0.7 mm 2 m/s 736 mmHg 93%
    01:00 +15°C° 0.7 mm 2 m/s 736 mmHg 94%
    02:00 +15°C° 0.7 mm 2 m/s 736 mmHg 94%
    03:00 +15°C° 0 mm 2 m/s 736 mmHg 94%
    04:00 +16°C° 0 mm 2 m/s 736 mmHg 94%
    05:00 +16°C° 0 mm 2 m/s 736 mmHg 94%
    06:00 +17°C° 0.2 mm 3 m/s 736 mmHg 89%
    07:00 +19°C° 0.2 mm 3 m/s 736 mmHg 84%
    08:00 +20°C° 0.2 mm 4 m/s 736 mmHg 79%
    09:00 +21°C° 0.2 mm 4 m/s 736 mmHg 75%
    10:00 +22°C° 0.2 mm 5 m/s 735 mmHg 72%
    11:00 +22°C° 0.2 mm 5 m/s 735 mmHg 68%
    12:00 +22°C° 0.6 mm 5 m/s 735 mmHg 69%
    13:00 +22°C° 0.6 mm 5 m/s 735 mmHg 70%
    14:00 +22°C° 0.6 mm 5 m/s 734 mmHg 71%
    15:00 +22°C° 0.4 mm 4 m/s 734 mmHg 74%
    16:00 +22°C° 0.4 mm 4 m/s 734 mmHg 76%
    17:00 +21°C° 0.4 mm 3 m/s 734 mmHg 78%
    18:00 +20°C° 1.7 mm 3 m/s 733 mmHg 82%
    19:00 +18°C° 1.7 mm 3 m/s 733 mmHg 86%
    20:00 +17°C° 1.7 mm 2 m/s 733 mmHg 90%
    21:00 +16°C° 0.2 mm 2 m/s 733 mmHg 92%
    22:00 +16°C° 0.2 mm 2 m/s 733 mmHg 93%
    23:00 +15°C° 0.2 mm 2 m/s 733 mmHg 95%

    26 Mai, Dimanche

    Heure Température Précipitation Vent Pression Humidité
    00:00 +15°C° 0 mm 2 m/s 733 mmHg 95%
    01:00 +14°C° 0 mm 2 m/s 733 mmHg 96%
    02:00 +14°C° 0 mm 2 m/s 733 mmHg 96%
    03:00 +14°C° 0 mm 2 m/s 733 mmHg 96%
    04:00 +14°C° 0 mm 3 m/s 733 mmHg 96%
    05:00 +14°C° 0 mm 3 m/s 733 mmHg 97%
    06:00 +14°C° 0 mm 3 m/s 733 mmHg 94%
    07:00 +16°C° 0 mm 3 m/s 734 mmHg 92%
    08:00 +16°C° 0 mm 3 m/s 734 mmHg 89%
    09:00 +18°C° 0 mm 4 m/s 734 mmHg 80%
    10:00 +19°C° 0 mm 4 m/s 734 mmHg 71%
    11:00 +20°C° 0 mm 5 m/s 734 mmHg 62%
    12:00 +21°C° 0 mm 4 m/s 734 mmHg 60%
    13:00 +22°C° 0 mm 4 m/s 734 mmHg 59%
    14:00 +22°C° 0 mm 4 m/s 734 mmHg 57%
    15:00 +22°C° 0.3 mm 4 m/s 735 mmHg 63%
    16:00 +21°C° 0.3 mm 4 m/s 735 mmHg 69%
    17:00 +20°C° 0.3 mm 4 m/s 735 mmHg 76%
    18:00 +19°C° 0.1 mm 4 m/s 735 mmHg 81%
    19:00 +17°C° 0.1 mm 4 m/s 736 mmHg 85%
    20:00 +14°C° 0.1 mm 3 m/s 736 mmHg 90%
    21:00 +13°C° 0 mm 3 m/s 736 mmHg 90%
    22:00 +12°C° 0 mm 3 m/s 737 mmHg 90%
    23:00 +11°C° 0 mm 3 m/s 737 mmHg 89%
    Voir plus